Погода в Кутузовке

Россия / Омская область     54°27′58″N   72°31′16″E
темп.,
°C
ветер,
м/с
пор.,
м/с
влажн.,
%
обл.,
%
осадки,
мм/ч
давл.,
гПа
погр.,
м
25 января, вт
вт2500:00−18ююз3694100 0.0 103891
03:00−17ююз3892100 0.0 1037117
06:00−16юз3892100 0.0 1035137
09:00−14юз41091100 0.0 1033208
12:00−12юз4988100 0.0 1031266
15:00−11зюз4787100 0.0 1029259
18:00−11юз4891100 0.0 1027260
21:00−11юз4994100 0.2 1026318
26 января, ср
ср2600:00−10зюз51195100 1.6 1024415
03:00−10з4995100 0.9 1024363
06:00−11зсз369682 1.3 1024144
09:00−14зсз2299100 0.1 102635
12:00−12сз239896 0.1 102762
15:00−11з119873 0.0 102810
18:00−17юз1110097 0.1 10309
21:00−18юз22100100 0.0 103122
27 января, чт
чт2700:00−20зюз2210026 0.1 103214
03:00−22юз2210049 0.0 103216
06:00−23юз2210093 0.0 103331
09:00−23ююз2210096 0.0 103320
12:00−16ююз2393100 0.0 103377
15:00−13ю2491100 0.0 1032110
18:00−17ю2395100 0.0 103337
21:00−20ю229743 0.0 10329
28 января, пт
пт2800:00−21ю2299100 0.0 103225
03:00−22ю229664 0.0 103130
06:00−22ю229469 0.0 103121
09:00−23ююв2294100 0.0 103119
12:00−15ю358398 0.0 1030107
15:00−13ююв3585100 0.0 1029131
18:00−15ююв3588100 0.0 102963
21:00−16ююв3688100 0.0 102967
29 января, сб
сб2900:00−17юв3591100 0.0 102955
03:00−18юв249395 0.0 102951
06:00−17вюв3789100 0.0 102891
09:00−15вюв3988100 0.0 1028157
12:00−13юв41185100 0.0 1027239
15:00−11вюв51283100 0.0 1026281
18:00−12вюв51383100 0.0 1025276
21:00−12вюв6148394 0.0 1024318